Location: Pebble Beach Sunset Acres
(33.0837°N, 96.4508°W)
Time: 01:42:06
(UTC+00:00)

DELTA 2 R/B (1) - Pass Details

Date: 26 June 2022
Orbit: 790 x 803 km, 39.6° (Epoch: 15 August)

Event Time Altitude Azimuth Distance (km) Brightness Sun altitude
Rises 05:54:27 0° 291° (WNW) 3,302 7.1 -33.0°
Reaches altitude 10° 05:57:01 10° 285° (WNW) 2,371 6.3 -33.1°
Enters shadow 05:58:13 17° 281° (W) 1,952 5.7 -33.1°
